contact:dominique.lefevre@mio.osupytheas.fr, maurice.libes@osupytheas.fr, didier.mallarino@osupytheas.fr
Project:EMSO http://www.emso-fr.org/EMSO-France
Depth: 2436.0 m
Title:EMSO Ligure Ouest : Data MII capteur MICROCAT
DateTime_Computer,Latitude,Longitude,Temperature,Conductivity,Pressure,DateTime_Instrument
DateTime_Computer,Latitude,Longitude,degC,S m-1,dbar,DateTime_Instrument
2020-05-10T00:01:09Z,42.805,6.029,13.2989,4.60003,2470.049,2020-5-10T02:01:50Z
2020-05-10T00:04:12Z,42.805,6.029,13.3000,4.60008,2470.077,2020-5-10T02:04:54Z
2020-05-10T00:07:15Z,42.805,6.029,13.2984,4.60019,2470.04,2020-5-10T02:07:57Z
2020-05-10T00:10:19Z,42.805,6.029,13.3024,4.60032,2470.124,2020-5-10T02:11:00Z
2020-05-10T00:13:22Z,42.805,6.029,13.3007,4.60016,2470.087,2020-5-10T02:14:03Z
2020-05-10T00:16:25Z,42.805,6.029,13.2998,4.59999,2470.124,2020-5-10T02:17:07Z
2020-05-10T00:19:28Z,42.805,6.029,13.2986,4.60029,2470.077,2020-5-10T02:20:10Z
2020-05-10T00:22:32Z,42.805,6.029,13.3010,4.60003,2470.04,2020-5-10T02:23:13Z
2020-05-10T00:25:35Z,42.805,6.029,13.2993,4.60028,2470.077,2020-5-10T02:26:17Z
2020-05-10T00:28:38Z,42.805,6.029,13.2994,4.60009,2470.017,2020-5-10T02:29:20Z
2020-05-10T00:31:41Z,42.805,6.029,13.3009,4.60026,2470.03,2020-5-10T02:32:23Z
2020-05-10T00:34:45Z,42.805,6.029,13.2984,4.60019,2470.04,2020-5-10T02:35:26Z
2020-05-10T00:37:48Z,42.805,6.029,13.2994,4.60005,2470.053,2020-5-10T02:38:29Z
2020-05-10T00:40:51Z,42.805,6.029,13.3012,4.60010,2470.04,2020-5-10T02:41:33Z
2020-05-10T00:43:55Z,42.805,6.029,13.2993,4.60042,2470.063,2020-5-10T02:44:36Z
2020-05-10T00:46:58Z,42.805,6.029,13.3004,4.59998,2470.053,2020-5-10T02:47:39Z
2020-05-10T00:50:01Z,42.805,6.029,13.3015,4.60024,2470.1,2020-5-10T02:50:43Z
2020-05-10T00:53:04Z,42.805,6.029,13.3015,4.59988,2470.04,2020-5-10T02:53:46Z
2020-05-10T00:56:08Z,42.805,6.029,13.3016,4.60016,2470.04,2020-5-10T02:56:49Z
2020-05-10T00:59:11Z,42.805,6.029,13.2996,4.60024,2470.04,2020-5-10T02:59:52Z
2020-05-10T01:02:14Z,42.805,6.029,13.2987,4.60017,2470.04,2020-5-10T03:02:56Z
2020-05-10T01:05:17Z,42.805,6.029,13.3014,4.60005,2470.03,2020-5-10T03:05:59Z
2020-05-10T01:08:21Z,42.805,6.029,13.3016,4.60038,2470.017,2020-5-10T03:09:02Z
2020-05-10T01:11:24Z,42.805,6.029,13.3014,4.60026,2470.03,2020-5-10T03:12:06Z
2020-05-10T01:14:27Z,42.805,6.029,13.3009,4.60020,2470.03,2020-5-10T03:15:09Z
2020-05-10T01:17:31Z,42.805,6.029,13.2994,4.59990,2470.007,2020-5-10T03:18:12Z
2020-05-10T01:20:34Z,42.805,6.029,13.2996,4.60014,2469.993,2020-5-10T03:21:15Z
2020-05-10T01:23:37Z,42.805,6.029,13.3020,4.59994,2470.053,2020-5-10T03:24:19Z
2020-05-10T01:26:40Z,42.805,6.029,13.3037,4.59988,2470.04,2020-5-10T03:27:22Z
2020-05-10T01:29:44Z,42.805,6.029,13.2998,4.60002,2469.993,2020-5-10T03:30:25Z
2020-05-10T01:32:47Z,42.805,6.029,13.3002,4.60017,2469.993,2020-5-10T03:33:28Z
2020-05-10T01:35:50Z,42.805,6.029,13.3013,4.60009,2469.993,2020-5-10T03:36:32Z
2020-05-10T01:38:53Z,42.805,6.029,13.2999,4.60004,2470.017,2020-5-10T03:39:35Z
2020-05-10T01:41:57Z,42.805,6.029,13.3011,4.60005,2469.97,2020-5-10T03:42:38Z
2020-05-10T01:45:00Z,42.805,6.029,13.3006,4.60039,2470.053,2020-5-10T03:45:41Z
2020-05-10T01:48:03Z,42.805,6.029,13.3024,4.59995,2470.03,2020-5-10T03:48:45Z
2020-05-10T01:51:06Z,42.805,6.029,13.3032,4.59999,2470.017,2020-5-10T03:51:48Z
2020-05-10T01:54:09Z,42.805,6.029,13.2991,4.60004,2469.993,2020-5-10T03:54:51Z
2020-05-10T01:57:13Z,42.805,6.029,13.3003,4.59988,2470.017,2020-5-10T03:57:54Z
2020-05-10T02:00:16Z,42.805,6.029,13.3015,4.60009,2469.97,2020-5-10T04:00:58Z
2020-05-10T02:03:19Z,42.805,6.029,13.2991,4.59991,2470.007,2020-5-10T04:04:01Z
2020-05-10T02:06:23Z,42.805,6.029,13.3009,4.60014,2470.007,2020-5-10T04:07:04Z
2020-05-10T02:09:26Z,42.805,6.029,13.3008,4.60006,2469.97,2020-5-10T04:10:07Z
2020-05-10T02:12:29Z,42.805,6.029,13.3000,4.60006,2469.97,2020-5-10T04:13:11Z
2020-05-10T02:15:32Z,42.805,6.029,13.3000,4.60002,2469.984,2020-5-10T04:16:14Z
2020-05-10T02:18:36Z,42.805,6.029,13.3015,4.59990,2469.984,2020-5-10T04:19:17Z
2020-05-10T02:21:39Z,42.805,6.029,13.3015,4.60016,2469.97,2020-5-10T04:22:21Z
2020-05-10T02:24:42Z,42.805,6.029,13.2987,4.60046,2469.984,2020-5-10T04:25:24Z
2020-05-10T02:27:46Z,42.805,6.029,13.3000,4.60009,2469.993,2020-5-10T04:28:27Z
2020-05-10T02:30:49Z,42.805,6.029,13.3003,4.60041,2469.97,2020-5-10T04:31:30Z
2020-05-10T02:33:52Z,42.805,6.029,13.3018,4.60008,2469.984,2020-5-10T04:34:33Z
2020-05-10T02:36:55Z,42.805,6.029,13.3005,4.60011,2469.97,2020-5-10T04:37:37Z
2020-05-10T02:39:58Z,42.805,6.029,13.3016,4.59994,2469.984,2020-5-10T04:40:40Z
2020-05-10T02:43:02Z,42.805,6.029,13.3026,4.60023,2469.984,2020-5-10T04:43:43Z
2020-05-10T02:46:05Z,42.805,6.029,13.3028,4.60009,2469.984,2020-5-10T04:46:47Z
2020-05-10T02:49:08Z,42.805,6.029,13.2993,4.60011,2469.96,2020-5-10T04:49:50Z
2020-05-10T02:52:12Z,42.805,6.029,13.2995,4.60041,2469.97,2020-5-10T04:52:53Z
2020-05-10T02:55:15Z,42.805,6.029,13.3006,4.60054,2469.984,2020-5-10T04:55:57Z
2020-05-10T02:58:18Z,42.805,6.029,13.3015,4.60021,2469.96,2020-5-10T04:59:00Z
2020-05-10T03:01:21Z,42.805,6.029,13.3033,4.60005,2469.984,2020-5-10T05:02:03Z
2020-05-10T03:04:25Z,42.805,6.029,13.2987,4.60028,2469.984,2020-5-10T05:05:06Z
2020-05-10T03:07:28Z,42.805,6.029,13.2998,4.60019,2469.96,2020-5-10T05:08:09Z
2020-05-10T03:10:31Z,42.805,6.029,13.2996,4.60013,2469.96,2020-5-10T05:11:13Z
2020-05-10T03:13:34Z,42.805,6.029,13.2991,4.60003,2469.96,2020-5-10T05:14:16Z
2020-05-10T03:16:38Z,42.805,6.029,13.2997,4.59995,2469.947,2020-5-10T05:17:19Z
2020-05-10T03:19:41Z,42.805,6.029,13.3019,4.60015,2469.947,2020-5-10T05:20:23Z
2020-05-10T03:22:44Z,42.805,6.029,13.2996,4.60036,2469.96,2020-5-10T05:23:26Z
2020-05-10T03:25:47Z,42.805,6.029,13.2984,4.60034,2469.96,2020-5-10T05:26:29Z
2020-05-10T03:28:51Z,42.805,6.029,13.2997,4.60007,2469.947,2020-5-10T05:29:32Z
2020-05-10T03:31:54Z,42.805,6.029,13.3016,4.60010,2469.96,2020-5-10T05:32:35Z
2020-05-10T03:34:57Z,42.805,6.029,13.2990,4.60019,2469.97,2020-5-10T05:35:39Z
2020-05-10T03:38:00Z,42.805,6.029,13.3017,4.59993,2469.96,2020-5-10T05:38:42Z
2020-05-10T03:41:03Z,42.805,6.029,13.2986,4.60015,2469.937,2020-5-10T05:41:45Z
2020-05-10T03:44:07Z,42.805,6.029,13.2998,4.60018,2469.937,2020-5-10T05:44:48Z
2020-05-10T03:47:10Z,42.805,6.029,13.2989,4.60014,2469.947,2020-5-10T05:47:52Z
2020-05-10T03:50:13Z,42.805,6.029,13.2986,4.60011,2469.914,2020-5-10T05:50:55Z
2020-05-10T03:53:17Z,42.805,6.029,13.3003,4.60000,2469.947,2020-5-10T05:53:58Z
2020-05-10T03:56:20Z,42.805,6.029,13.3004,4.60031,2469.923,2020-5-10T05:57:01Z
2020-05-10T03:59:23Z,42.805,6.029,13.3031,4.60008,2469.923,2020-5-10T06:00:05Z
2020-05-10T04:02:26Z,42.805,6.029,13.3014,4.60005,2469.96,2020-5-10T06:03:08Z
2020-05-10T04:05:30Z,42.805,6.029,13.2987,4.60010,2469.947,2020-5-10T06:06:11Z
2020-05-10T04:08:33Z,42.805,6.029,13.3029,4.60060,2469.937,2020-5-10T06:09:14Z
2020-05-10T04:11:36Z,42.805,6.029,13.3000,4.60021,2469.947,2020-5-10T06:12:17Z
2020-05-10T04:14:39Z,42.805,6.029,13.3053,4.60026,2469.96,2020-5-10T06:15:21Z
2020-05-10T04:17:42Z,42.805,6.029,13.3019,4.60014,2469.97,2020-5-10T06:18:24Z
2020-05-10T04:20:46Z,42.805,6.029,13.2998,4.60022,2469.96,2020-5-10T06:21:27Z
2020-05-10T04:23:49Z,42.805,6.029,13.2991,4.60018,2469.96,2020-5-10T06:24:31Z
2020-05-10T04:26:52Z,42.805,6.029,13.3011,4.60011,2469.947,2020-5-10T06:27:34Z
2020-05-10T04:29:56Z,42.805,6.029,13.3006,4.60017,2469.97,2020-5-10T06:30:37Z
2020-05-10T04:32:59Z,42.805,6.029,13.2998,4.60029,2469.984,2020-5-10T06:33:41Z
2020-05-10T04:36:02Z,42.805,6.029,13.2991,4.59990,2469.96,2020-5-10T06:36:44Z
2020-05-10T04:39:06Z,42.805,6.029,13.3005,4.59992,2469.947,2020-5-10T06:39:47Z
2020-05-10T04:42:09Z,42.805,6.029,13.2990,4.60007,2469.984,2020-5-10T06:42:50Z
2020-05-10T04:45:12Z,42.805,6.029,13.2993,4.59996,2469.947,2020-5-10T06:45:54Z
2020-05-10T04:48:15Z,42.805,6.029,13.2998,4.60001,2469.947,2020-5-10T06:48:57Z
2020-05-10T04:51:19Z,42.805,6.029,13.2983,4.60007,2469.97,2020-5-10T06:52:00Z
2020-05-10T04:54:22Z,42.805,6.029,13.3024,4.59991,2469.96,2020-5-10T06:55:03Z
2020-05-10T04:57:25Z,42.805,6.029,13.3017,4.60004,2469.923,2020-5-10T06:58:06Z
2020-05-10T05:00:28Z,42.805,6.029,13.2994,4.59995,2469.984,2020-5-10T07:01:10Z
2020-05-10T05:03:31Z,42.805,6.029,13.2998,4.59995,2470.007,2020-5-10T07:04:13Z
2020-05-10T05:06:35Z,42.805,6.029,13.2990,4.60011,2469.984,2020-5-10T07:07:16Z
2020-05-10T05:09:38Z,42.805,6.029,13.3008,4.60016,2469.947,2020-5-10T07:10:19Z
2020-05-10T05:12:41Z,42.805,6.029,13.3011,4.60011,2469.97,2020-5-10T07:13:23Z
2020-05-10T05:15:45Z,42.805,6.029,13.3012,4.60016,2469.984,2020-5-10T07:16:26Z
2020-05-10T05:18:48Z,42.805,6.029,13.3039,4.60049,2469.993,2020-5-10T07:19:29Z
2020-05-10T05:21:51Z,42.805,6.029,13.3022,4.60033,2469.984,2020-5-10T07:22:33Z
2020-05-10T05:24:54Z,42.805,6.029,13.3022,4.60017,2469.984,2020-5-10T07:25:36Z
2020-05-10T05:27:57Z,42.805,6.029,13.3053,4.60027,2469.984,2020-5-10T07:28:39Z
2020-05-10T05:31:01Z,42.805,6.029,13.3058,4.60027,2469.993,2020-5-10T07:31:42Z
2020-05-10T05:34:04Z,42.805,6.029,13.3063,4.60028,2469.97,2020-5-10T07:34:45Z
2020-05-10T05:37:07Z,42.805,6.029,13.2993,4.60029,2469.993,2020-5-10T07:37:49Z
2020-05-10T05:40:11Z,42.805,6.029,13.3001,4.60021,2469.984,2020-5-10T07:40:52Z
2020-05-10T05:43:14Z,42.805,6.029,13.3010,4.60029,2469.993,2020-5-10T07:43:55Z
2020-05-10T05:46:17Z,42.805,6.029,13.3005,4.60063,2469.993,2020-5-10T07:46:59Z
2020-05-10T05:49:20Z,42.805,6.029,13.2986,4.60049,2470.007,2020-5-10T07:50:02Z
2020-05-10T05:52:24Z,42.805,6.029,13.3017,4.60044,2469.993,2020-5-10T07:53:05Z
2020-05-10T05:55:27Z,42.805,6.029,13.3005,4.60070,2469.993,2020-5-10T07:56:08Z
2020-05-10T05:58:30Z,42.805,6.029,13.3039,4.60005,2470.03,2020-5-10T07:59:12Z
2020-05-10T06:01:33Z,42.805,6.029,13.3043,4.60017,2469.993,2020-5-10T08:02:15Z
2020-05-10T06:04:37Z,42.805,6.029,13.3041,4.60019,2470.03,2020-5-10T08:05:18Z
2020-05-10T06:07:40Z,42.805,6.029,13.3035,4.60031,2469.993,2020-5-10T08:08:21Z
2020-05-10T06:10:43Z,42.805,6.029,13.3020,4.60031,2469.993,2020-5-10T08:11:25Z
2020-05-10T06:13:46Z,42.805,6.029,13.3028,4.60049,2470.007,2020-5-10T08:14:28Z
2020-05-10T06:16:49Z,42.805,6.029,13.3046,4.60067,2470.003,2020-5-10T08:17:31Z
2020-05-10T06:19:53Z,42.805,6.029,13.3034,4.60080,2469.97,2020-5-10T08:20:34Z
2020-05-10T06:22:56Z,42.805,6.029,13.3020,4.60035,2469.993,2020-5-10T08:23:38Z
2020-05-10T06:25:59Z,42.805,6.029,13.3041,4.60031,2470.053,2020-5-10T08:26:41Z
2020-05-10T06:29:03Z,42.805,6.029,13.3050,4.60006,2470.053,2020-5-10T08:29:44Z
2020-05-10T06:32:06Z,42.805,6.029,13.3014,4.60018,2470.03,2020-5-10T08:32:47Z
2020-05-10T06:35:09Z,42.805,6.029,13.3033,4.60017,2470.053,2020-5-10T08:35:51Z
2020-05-10T06:38:12Z,42.805,6.029,13.3029,4.60026,2470.03,2020-5-10T08:38:54Z
2020-05-10T06:41:16Z,42.805,6.029,13.3034,4.60026,2470.04,2020-5-10T08:41:57Z
2020-05-10T06:44:19Z,42.805,6.029,13.3002,4.59997,2470.053,2020-5-10T08:45:00Z
2020-05-10T06:47:22Z,42.805,6.029,13.3006,4.60030,2470.04,2020-5-10T08:48:04Z
2020-05-10T06:50:25Z,42.805,6.029,13.2998,4.60053,2470.03,2020-5-10T08:51:07Z
2020-05-10T06:53:29Z,42.805,6.029,13.3023,4.60008,2470.007,2020-5-10T08:54:10Z
2020-05-10T06:56:32Z,42.805,6.029,13.3015,4.59993,2470.053,2020-5-10T08:57:13Z
2020-05-10T06:59:35Z,42.805,6.029,13.2997,4.60016,2470.04,2020-5-10T09:00:17Z
2020-05-10T07:02:38Z,42.805,6.029,13.2991,4.60035,2470.087,2020-5-10T09:03:20Z
2020-05-10T07:05:42Z,42.805,6.029,13.3036,4.60059,2470.04,2020-5-10T09:06:23Z
2020-05-10T07:08:45Z,42.805,6.029,13.3048,4.60029,2470.053,2020-5-10T09:09:26Z
2020-05-10T07:11:48Z,42.805,6.029,13.3007,4.60007,2470.04,2020-5-10T09:12:30Z
2020-05-10T07:14:51Z,42.805,6.029,13.3007,4.60041,2470.077,2020-5-10T09:15:33Z
2020-05-10T07:17:55Z,42.805,6.029,13.3014,4.60033,2470.063,2020-5-10T09:18:36Z
2020-05-10T07:20:58Z,42.805,6.029,13.2986,4.60006,2470.077,2020-5-10T09:21:40Z
2020-05-10T07:24:01Z,42.805,6.029,13.3032,4.60037,2470.063,2020-5-10T09:24:43Z
2020-05-10T07:27:04Z,42.805,6.029,13.3029,4.60024,2470.063,2020-5-10T09:27:46Z
2020-05-10T07:30:08Z,42.805,6.029,13.3012,4.60006,2470.077,2020-5-10T09:30:49Z
2020-05-10T07:33:11Z,42.805,6.029,13.2990,4.60021,2470.077,2020-5-10T09:33:53Z
2020-05-10T07:36:14Z,42.805,6.029,13.3019,4.60008,2470.077,2020-5-10T09:36:56Z
2020-05-10T07:39:18Z,42.805,6.029,13.3008,4.60010,2470.04,2020-5-10T09:39:59Z
2020-05-10T07:42:21Z,42.805,6.029,13.3009,4.60001,2470.087,2020-5-10T09:43:02Z
2020-05-10T07:45:24Z,42.805,6.029,13.2991,4.59999,2470.077,2020-5-10T09:46:06Z
2020-05-10T07:48:27Z,42.805,6.029,13.2986,4.60021,2470.053,2020-5-10T09:49:09Z
2020-05-10T07:51:31Z,42.805,6.029,13.2987,4.60006,2470.063,2020-5-10T09:52:12Z
2020-05-10T07:54:34Z,42.805,6.029,13.2983,4.60021,2470.04,2020-5-10T09:55:15Z
2020-05-10T07:57:37Z,42.805,6.029,13.2990,4.59995,2470.077,2020-5-10T09:58:19Z
2020-05-10T08:00:40Z,42.805,6.029,13.2997,4.60003,2470.087,2020-5-10T10:01:22Z
2020-05-10T08:03:44Z,42.805,6.029,13.2999,4.60008,2470.077,2020-5-10T10:04:25Z
2020-05-10T08:06:47Z,42.805,6.029,13.2991,4.60007,2470.087,2020-5-10T10:07:29Z
2020-05-10T08:09:50Z,42.805,6.029,13.3005,4.59996,2470.1,2020-5-10T10:10:32Z
2020-05-10T08:12:54Z,42.805,6.029,13.2995,4.60003,2470.1,2020-5-10T10:13:35Z
2020-05-10T08:15:57Z,42.805,6.029,13.2993,4.60016,2470.04,2020-5-10T10:16:38Z
2020-05-10T08:19:00Z,42.805,6.029,13.3038,4.60004,2470.077,2020-5-10T10:19:42Z
2020-05-10T08:22:03Z,42.805,6.029,13.3011,4.60007,2470.04,2020-5-10T10:22:45Z
2020-05-10T08:25:07Z,42.805,6.029,13.3001,4.60026,2470.087,2020-5-10T10:25:48Z
2020-05-10T08:28:10Z,42.805,6.029,13.2987,4.60016,2470.077,2020-5-10T10:28:51Z
2020-05-10T08:31:13Z,42.805,6.029,13.2993,4.60003,2470.063,2020-5-10T10:31:55Z
2020-05-10T08:34:17Z,42.805,6.029,13.2980,4.59996,2470.087,2020-5-10T10:34:58Z
2020-05-10T08:37:20Z,42.805,6.029,13.2985,4.60010,2470.1,2020-5-10T10:38:02Z
2020-05-10T08:40:23Z,42.805,6.029,13.2987,4.60014,2470.077,2020-5-10T10:41:05Z
2020-05-10T08:43:26Z,42.805,6.029,13.2995,4.60010,2470.11,2020-5-10T10:44:08Z
2020-05-10T08:46:30Z,42.805,6.029,13.3003,4.60019,2470.087,2020-5-10T10:47:11Z
2020-05-10T08:49:33Z,42.805,6.029,13.3011,4.60007,2470.124,2020-5-10T10:50:15Z
2020-05-10T08:52:36Z,42.805,6.029,13.3011,4.60001,2470.063,2020-5-10T10:53:18Z
2020-05-10T08:55:40Z,42.805,6.029,13.2990,4.60003,2470.063,2020-5-10T10:56:21Z
2020-05-10T08:58:43Z,42.805,6.029,13.3000,4.59992,2470.077,2020-5-10T10:59:24Z
2020-05-10T09:01:46Z,42.805,6.029,13.2994,4.60010,2470.11,2020-5-10T11:02:28Z
2020-05-10T09:04:49Z,42.805,6.029,13.3011,4.60016,2470.087,2020-5-10T11:05:31Z
2020-05-10T09:07:53Z,42.805,6.029,13.3013,4.60015,2470.11,2020-5-10T11:08:34Z
2020-05-10T09:10:56Z,42.805,6.029,13.2995,4.60011,2470.1,2020-5-10T11:11:37Z
2020-05-10T09:13:59Z,42.805,6.029,13.2993,4.60011,2470.063,2020-5-10T11:14:41Z
2020-05-10T09:17:02Z,42.805,6.029,13.3014,4.60031,2470.1,2020-5-10T11:17:44Z
2020-05-10T09:20:06Z,42.805,6.029,13.3002,4.60026,2470.087,2020-5-10T11:20:47Z
2020-05-10T09:23:09Z,42.805,6.029,13.3003,4.60014,2470.063,2020-5-10T11:23:50Z
2020-05-10T09:26:12Z,42.805,6.029,13.3009,4.60015,2470.063,2020-5-10T11:26:54Z
2020-05-10T09:29:15Z,42.805,6.029,13.2998,4.59982,2470.04,2020-5-10T11:29:57Z
2020-05-10T09:32:19Z,42.805,6.029,13.2991,4.59993,2470.087,2020-5-10T11:33:00Z
2020-05-10T09:35:22Z,42.805,6.029,13.2998,4.60023,2470.11,2020-5-10T11:36:03Z
2020-05-10T09:38:25Z,42.805,6.029,13.2993,4.60028,2470.087,2020-5-10T11:39:07Z
2020-05-10T09:41:28Z,42.805,6.029,13.3029,4.59991,2470.124,2020-5-10T11:42:10Z
2020-05-10T09:44:32Z,42.805,6.029,13.3008,4.60021,2470.053,2020-5-10T11:45:13Z
2020-05-10T09:47:35Z,42.805,6.029,13.2995,4.60011,2470.11,2020-5-10T11:48:16Z
2020-05-10T09:50:38Z,42.805,6.029,13.2994,4.59996,2470.077,2020-5-10T11:51:20Z
2020-05-10T09:53:41Z,42.805,6.029,13.2991,4.60000,2470.077,2020-5-10T11:54:23Z
2020-05-10T09:56:45Z,42.805,6.029,13.2991,4.60000,2470.1,2020-5-10T11:57:26Z
2020-05-10T09:59:48Z,42.805,6.029,13.2994,4.60000,2470.063,2020-5-10T12:00:29Z
2020-05-10T10:02:51Z,42.805,6.029,13.2998,4.60005,2470.063,2020-5-10T12:03:33Z
2020-05-10T10:05:54Z,42.805,6.029,13.2992,4.59994,2470.063,2020-5-10T12:06:36Z
2020-05-10T10:08:58Z,42.805,6.029,13.3006,4.59993,2470.087,2020-5-10T12:09:39Z
2020-05-10T10:12:01Z,42.805,6.029,13.2996,4.59992,2470.077,2020-5-10T12:12:43Z
2020-05-10T10:15:04Z,42.805,6.029,13.3009,4.59986,2470.063,2020-5-10T12:15:46Z
2020-05-10T10:18:08Z,42.805,6.029,13.2991,4.60015,2470.04,2020-5-10T12:18:49Z
2020-05-10T10:21:11Z,42.805,6.029,13.2997,4.59999,2470.077,2020-5-10T12:21:52Z
2020-05-10T10:24:14Z,42.805,6.029,13.3004,4.59994,2470.077,2020-5-10T12:24:56Z
2020-05-10T10:27:17Z,42.805,6.029,13.2996,4.60008,2470.053,2020-5-10T12:27:59Z
2020-05-10T10:30:20Z,42.805,6.029,13.3019,4.59992,2470.053,2020-5-10T12:31:02Z
2020-05-10T10:33:24Z,42.805,6.029,13.3008,4.60000,2470.04,2020-5-10T12:34:05Z
2020-05-10T10:36:27Z,42.805,6.029,13.3000,4.59991,2470.04,2020-5-10T12:37:09Z
2020-05-10T10:39:31Z,42.805,6.029,13.2993,4.59996,2470.03,2020-5-10T12:40:12Z
2020-05-10T10:42:34Z,42.805,6.029,13.2998,4.59991,2470.04,2020-5-10T12:43:15Z
2020-05-10T10:45:37Z,42.805,6.029,13.2999,4.60000,2470.077,2020-5-10T12:46:19Z
2020-05-10T10:48:40Z,42.805,6.029,13.2996,4.60002,2470.04,2020-5-10T12:49:22Z
2020-05-10T10:51:44Z,42.805,6.029,13.3001,4.59995,2470.063,2020-5-10T12:52:25Z
2020-05-10T10:54:47Z,42.805,6.029,13.2992,4.59990,2470.017,2020-5-10T12:55:29Z
2020-05-10T10:57:50Z,42.805,6.029,13.3006,4.60006,2470.077,2020-5-10T12:58:32Z
2020-05-10T11:00:53Z,42.805,6.029,13.2991,4.59997,2470.04,2020-5-10T13:01:35Z
2020-05-10T11:03:57Z,42.805,6.029,13.2997,4.59990,2470.077,2020-5-10T13:04:38Z
2020-05-10T11:07:00Z,42.805,6.029,13.2999,4.59994,2470.03,2020-5-10T13:07:41Z
2020-05-10T11:10:03Z,42.805,6.029,13.2991,4.59993,2470.053,2020-5-10T13:10:45Z
2020-05-10T11:13:06Z,42.805,6.029,13.2995,4.59991,2470.017,2020-5-10T13:13:48Z
2020-05-10T11:16:10Z,42.805,6.029,13.2997,4.59997,2470.063,2020-5-10T13:16:51Z
2020-05-10T11:19:13Z,42.805,6.029,13.2998,4.59994,2470.03,2020-5-10T13:19:54Z
2020-05-10T11:22:16Z,42.805,6.029,13.2998,4.59991,2470.053,2020-5-10T13:22:58Z
2020-05-10T11:25:19Z,42.805,6.029,13.2992,4.59990,2469.993,2020-5-10T13:26:01Z
2020-05-10T11:28:22Z,42.805,6.029,13.2982,4.59994,2470.053,2020-5-10T13:29:04Z
2020-05-10T11:31:26Z,42.805,6.029,13.2997,4.59992,2470.03,2020-5-10T13:32:07Z
2020-05-10T11:34:29Z,42.805,6.029,13.2997,4.59990,2469.993,2020-5-10T13:35:10Z
2020-05-10T11:37:32Z,42.805,6.029,13.2993,4.59991,2470.03,2020-5-10T13:38:14Z
2020-05-10T11:40:35Z,42.805,6.029,13.2993,4.60001,2470.04,2020-5-10T13:41:17Z
2020-05-10T11:43:39Z,42.805,6.029,13.2986,4.59998,2469.993,2020-5-10T13:44:20Z
2020-05-10T11:46:42Z,42.805,6.029,13.3000,4.59994,2470.053,2020-5-10T13:47:24Z
2020-05-10T11:49:45Z,42.805,6.029,13.2996,4.59992,2470.04,2020-5-10T13:50:27Z
2020-05-10T11:52:49Z,42.805,6.029,13.2986,4.59993,2470.017,2020-5-10T13:53:30Z
2020-05-10T11:55:52Z,42.805,6.029,13.3012,4.59991,2470.017,2020-5-10T13:56:33Z
2020-05-10T11:58:55Z,42.805,6.029,13.2993,4.59991,2470.03,2020-5-10T13:59:37Z
2020-05-10T12:01:58Z,42.805,6.029,13.2985,4.59986,2469.97,2020-5-10T14:02:40Z
2020-05-10T12:05:02Z,42.805,6.029,13.2993,4.59993,2469.993,2020-5-10T14:05:43Z
2020-05-10T12:08:05Z,42.805,6.029,13.2985,4.59997,2470.007,2020-5-10T14:08:46Z
2020-05-10T12:11:08Z,42.805,6.029,13.3004,4.59991,2469.993,2020-5-10T14:11:50Z
2020-05-10T12:14:11Z,42.805,6.029,13.2995,4.59985,2470.03,2020-5-10T14:14:53Z
2020-05-10T12:17:15Z,42.805,6.029,13.2996,4.59995,2469.993,2020-5-10T14:17:56Z
2020-05-10T12:20:18Z,42.805,6.029,13.2991,4.59994,2470.007,2020-5-10T14:20:59Z
2020-05-10T12:23:21Z,42.805,6.029,13.2998,4.60000,2469.993,2020-5-10T14:24:03Z
2020-05-10T12:26:25Z,42.805,6.029,13.3004,4.59988,2469.993,2020-5-10T14:27:06Z
2020-05-10T12:29:28Z,42.805,6.029,13.2994,4.59990,2470.017,2020-5-10T14:30:09Z
2020-05-10T12:32:31Z,42.805,6.029,13.2994,4.59996,2470.007,2020-5-10T14:33:13Z
2020-05-10T12:35:34Z,42.805,6.029,13.2987,4.59987,2469.984,2020-5-10T14:36:16Z
2020-05-10T12:38:38Z,42.805,6.029,13.2987,4.59991,2470.007,2020-5-10T14:39:19Z
2020-05-10T12:41:41Z,42.805,6.029,13.2994,4.59994,2470.03,2020-5-10T14:42:22Z
2020-05-10T12:44:44Z,42.805,6.029,13.2998,4.60000,2469.97,2020-5-10T14:45:26Z
2020-05-10T12:47:47Z,42.805,6.029,13.3026,4.59994,2470.007,2020-5-10T14:48:29Z
2020-05-10T12:50:51Z,42.805,6.029,13.3005,4.59998,2470.017,2020-5-10T14:51:32Z
2020-05-10T12:53:54Z,42.805,6.029,13.2998,4.59986,2469.96,2020-5-10T14:54:35Z
2020-05-10T12:56:57Z,42.805,6.029,13.2993,4.59988,2469.947,2020-5-10T14:57:39Z
2020-05-10T13:00:00Z,42.805,6.029,13.2999,4.59993,2469.96,2020-5-10T15:00:42Z
2020-05-10T13:03:04Z,42.805,6.029,13.2992,4.59983,2469.97,2020-5-10T15:03:45Z
2020-05-10T13:06:07Z,42.805,6.029,13.3003,4.59993,2469.97,2020-5-10T15:06:48Z
2020-05-10T13:09:10Z,42.805,6.029,13.3008,4.59991,2469.984,2020-5-10T15:09:52Z
2020-05-10T13:12:13Z,42.805,6.029,13.2998,4.59996,2469.923,2020-5-10T15:12:55Z
2020-05-10T13:15:17Z,42.805,6.029,13.2995,4.59993,2469.984,2020-5-10T15:15:58Z
2020-05-10T13:18:20Z,42.805,6.029,13.3000,4.59989,2469.97,2020-5-10T15:19:01Z
2020-05-10T13:21:23Z,42.805,6.029,13.2994,4.59991,2469.993,2020-5-10T15:22:05Z
2020-05-10T13:24:26Z,42.805,6.029,13.3004,4.59994,2469.96,2020-5-10T15:25:08Z
2020-05-10T13:27:30Z,42.805,6.029,13.2995,4.59991,2469.984,2020-5-10T15:28:11Z
2020-05-10T13:30:33Z,42.805,6.029,13.3000,4.59994,2469.984,2020-5-10T15:31:14Z
2020-05-10T13:33:36Z,42.805,6.029,13.2989,4.59992,2469.937,2020-5-10T15:34:17Z
2020-05-10T13:36:39Z,42.805,6.029,13.3001,4.59999,2469.984,2020-5-10T15:37:21Z
2020-05-10T13:39:42Z,42.805,6.029,13.2996,4.59986,2469.947,2020-5-10T15:40:24Z
2020-05-10T13:42:46Z,42.805,6.029,13.3004,4.59991,2469.947,2020-5-10T15:43:27Z
2020-05-10T13:45:49Z,42.805,6.029,13.2997,4.59996,2469.937,2020-5-10T15:46:31Z
2020-05-10T13:48:52Z,42.805,6.029,13.2992,4.59985,2469.923,2020-5-10T15:49:34Z
2020-05-10T13:51:56Z,42.805,6.029,13.2996,4.59999,2469.937,2020-5-10T15:52:37Z
2020-05-10T13:54:59Z,42.805,6.029,13.3011,4.60001,2469.937,2020-5-10T15:55:40Z
2020-05-10T13:58:02Z,42.805,6.029,13.2992,4.59994,2469.96,2020-5-10T15:58:44Z
2020-05-10T14:01:06Z,42.805,6.029,13.3004,4.59991,2469.886,2020-5-10T16:01:47Z
2020-05-10T14:04:09Z,42.805,6.029,13.2993,4.59984,2469.97,2020-5-10T16:04:50Z
2020-05-10T14:07:12Z,42.805,6.029,13.2992,4.59988,2469.923,2020-5-10T16:07:54Z
2020-05-10T14:10:15Z,42.805,6.029,13.2994,4.60010,2469.937,2020-5-10T16:10:57Z
2020-05-10T14:13:18Z,42.805,6.029,13.2996,4.59999,2469.96,2020-5-10T16:14:00Z
2020-05-10T14:16:22Z,42.805,6.029,13.2992,4.59996,2469.947,2020-5-10T16:17:03Z
2020-05-10T14:19:25Z,42.805,6.029,13.2999,4.59993,2469.947,2020-5-10T16:20:07Z
2020-05-10T14:22:28Z,42.805,6.029,13.3001,4.59988,2469.947,2020-5-10T16:23:10Z
2020-05-10T14:25:31Z,42.805,6.029,13.3003,4.59989,2469.9,2020-5-10T16:26:13Z
2020-05-10T14:28:35Z,42.805,6.029,13.3007,4.60003,2469.937,2020-5-10T16:29:16Z
2020-05-10T14:31:38Z,42.805,6.029,13.3001,4.59992,2469.947,2020-5-10T16:32:19Z
2020-05-10T14:34:41Z,42.805,6.029,13.2985,4.59990,2469.9,2020-5-10T16:35:23Z
2020-05-10T14:37:44Z,42.805,6.029,13.2992,4.59991,2469.937,2020-5-10T16:38:26Z
2020-05-10T14:40:48Z,42.805,6.029,13.2993,4.59993,2469.947,2020-5-10T16:41:29Z
2020-05-10T14:43:51Z,42.805,6.029,13.2997,4.59987,2469.937,2020-5-10T16:44:32Z
2020-05-10T14:46:54Z,42.805,6.029,13.2986,4.59988,2469.937,2020-5-10T16:47:35Z
2020-05-10T14:49:57Z,42.805,6.029,13.2991,4.59991,2469.923,2020-5-10T16:50:39Z
2020-05-10T14:53:00Z,42.805,6.029,13.2991,4.59984,2469.914,2020-5-10T16:53:42Z
2020-05-10T14:56:04Z,42.805,6.029,13.2990,4.59986,2469.914,2020-5-10T16:56:45Z
2020-05-10T14:59:07Z,42.805,6.029,13.3000,4.59987,2469.937,2020-5-10T16:59:48Z
2020-05-10T15:02:10Z,42.805,6.029,13.2992,4.59987,2469.947,2020-5-10T17:02:52Z
2020-05-10T15:05:13Z,42.805,6.029,13.2991,4.59991,2469.923,2020-5-10T17:05:55Z
2020-05-10T15:08:17Z,42.805,6.029,13.2999,4.59987,2469.923,2020-5-10T17:08:58Z
2020-05-10T15:11:20Z,42.805,6.029,13.2992,4.59988,2469.914,2020-5-10T17:12:01Z
2020-05-10T15:14:23Z,42.805,6.029,13.2989,4.59981,2469.9,2020-5-10T17:15:05Z